Location: ???? ??????? ????
(31.2176°N, 31.6797°E)
Time: 11:41:45
(UTC+00:00)

Radarsat Rocket - Pass Details

Date: 29 October 2020
Orbit: 933 x 1492 km, 100.6° (Epoch: 26 November)

Event Time Altitude Azimuth Distance (km) Brightness Sun altitude
Rises 15:25:08 0° 169° (S) 3,842 7.2 -4.6°
Reaches altitude 10° 15:27:44 10° 172° (S) 2,825 6.5 -5.1°
Maximum altitude 15:33:57 71° 255° (WSW) 1,021 4.4 -6.4°
Drops below altitude 10° 15:39:47 10° 340° (NNW) 2,652 6.4 -7.7°
Sets 15:42:10 0° 342° (NNW) 3,591 7.1 -8.2°
